Regional Weather Roundup
Issued by NWS Charleston, SC

Current Version | Previous Version | Graphics & Text | Print | Product List | Glossary On
Versions: 1 2 3 4 5 6 7 8 9 10 11 12 13 14 15 16 17 18 19 20 21 22 23 24 25 26 27 28 29 30 31 32 33 34 35 36 37 38 39 40 41 42 43 44 45 46 47 48 49 50
602
ASUS42 KCHS 230527
RWRCHS

REGIONAL WEATHER ROUNDUP
NATIONAL WEATHER SERVICE CHARLESTON SC
100 AM EDT THU MAR 23 2017

NOTE: "FAIR" INDICATES FEW OR NO CLOUDS BELOW 12,000 FEET WITH NO
SIGNIFICANT WEATHER AND/OR OBSTRUCTIONS TO VISIBILITY.

NOT ALL STATIONS ARE QUALITY CONTROLLED. USE DATA WITH CAUTION...
ESPECIALLY DEWPOINT OBSERVATIONS.

SCZ027-030-031-034>040-042>050-230600-
...SOUTHEAST SOUTH CAROLINA...

CITY           SKY/WX    TMP DP  RH WIND       PRES   REMARKS
N CHARLESTON   CLOUDY    55  47  74 E12       30.33R
WATERFRONT PRK   N/A     58  52  80 NE14G21   30.30R
JOHNS ISLAND   FAIR      57  48  72 NE21G26   30.32R
PINOPOLIS        N/A     55  48  76 E12       30.24R
MONCKS CORNER  FAIR      52  43  71 E9G16     30.35R
SUMMERVILLE    FAIR      54  46  76 E6        30.34R
BEAUFORT MCAS  CLOUDY    58  53  84 NE8       30.29R
BEAUFORT ARPT  FAIR      59  52  77 NE13G20   30.29S
HILTON HEAD IS PTCLDY   N/A N/A N/A NE13G20   30.29R
WALTERBORO     CLOUDY    52  45  76 NE8       30.33R
ALLENDALE      FAIR      55  32  41 CALM      30.31R

...SOUTHERN MIDLANDS AND PEE DEE...

CITY           SKY/WX    TMP DP  RH WIND       PRES   REMARKS
GEORGETOWN     FAIR      52  37  58 NE17      30.38R
KINGSTREE      MOCLDY    50  37  62 E9        30.38R
ORANGEBURG     CLEAR     51  32  48 NE6       30.34R
BARNWELL       FAIR      54  34  47 E6        30.32S
AIKEN          FAIR      45  32  61 NE6       30.36R
MANNING        MOCLDY    50  43  76 E6        30.37R
COLUMBIA       PTCLDY    54  27  35 E10       30.35R
SUMTER         MOCLDY    52  28  40 E9        30.35R
FLORENCE       CLEAR     49  25  39 E13       30.40R
MYRTLE BEACH   CLEAR     50  36  58 NE15      30.41R
N MYRTLE BEACH CLEAR     47  35  63 NE13      30.39R

$$

GAZ063-065-086>088-099>101-113>116-118-119-134>141-150-230600-
...SOUTHEAST GEORGIA...

CITY           SKY/WX    TMP DP  RH WIND       PRES   REMARKS
SAVANNAH ARPT  PTCLDY    59  51  75 NE10      30.28R
HUNTER AAF     CLOUDY    60  54  82 E8        30.25R
FORT STEWART   PTCLDY    60  52  74 NE7       30.25R
STATESBORO     PTCLDY    58  50  75 CALM      30.30R
SYLVANIA       PTCLDY   N/A N/A N/A E6        30.31R
CLAXTON        FAIR     N/A N/A N/A NE7       30.29R

...CSRA...CENTRAL AND FAR SOUTHEAST GEORGIA...

CITY           SKY/WX    TMP DP  RH WIND       PRES   REMARKS
THOMSON        PTCLDY    53  31  43 MISG      30.37R
AUGUSTA-BUSH   MOCLDY    58  30  34 E8        30.32R
AUGUSTA-DANIEL MOCLDY    57  27  31 E7        30.32R
SWAINSBORO     CLOUDY    61  32  33 E6        30.30R
VIDALIA        CLEAR     61  50  67 E8G18     30.28S
EASTMAN        CLOUDY    65  40  39 SE12G18   30.30R
HAZLEHURST     FAIR      63  54  73 E8        30.26R
ALMA           PTCLDY    60  55  83 E3        30.25R
WAYCROSS       PTCLDY    62  59  91 CALM      30.25R
JESUP          FAIR      61  54  77 E6        30.26S
BAXLEY         FAIR      61  57  88 E7        30.26R
BRUNSWICK      MOCLDY    63  59  88 NE12      30.25R
SAINT SIMONS   MOCLDY    64  56  75 NE14      30.23R

$$

SCZ027-028-034-036>038-045-046-048>050-GAZ119-141-230600-
...LAKE AND SUPPLEMENTAL COASTAL OBSERVATIONS...

STATION/POSITION TIME  TEMP    WIND        PRES    WAVE   SWELL
                       AIR SEA DIR/SP/G            HT/PER HT/PER/DIR
                 (UTC) (F)     (DEG/KT/KT) (MB)    (FT/S) (FT/S/D)
WINYAH BAY       0445   54      70/ 19     1028.0R
LAKE MURRAY      0450   53      50/  5/  8 1026.8R
ACE BASIN NERRS  0430   58      40/  4     1026.0R
FORT PULASKI     0500   61 61   60/ 18/ 21 1025.4
SAPELO ISLAND    0500   62      40/ 10     1024.0

$$

ANZ835-935-AMZ111-154-330-350-352-354-370-450-454-472-230600-
...C-MAN AND BUOY OBSERVATIONS...

STATION/POSITION TIME  TEMP    WIND        PRES    WAVE   SWELL
                       AIR SEA DIR/SP/G            HT/PER HT/PER/DIR
                 (UTC) (F)     (DEG/KT/KT) (MB)    (FT/S) (FT/S/D)
BUOY 41004       0450   62 66   50/ 25/ 29 1024.7R   7/ 6   2/ 70/10
BUOY 41008       0450   64 62   60/ 14/ 17 1023.5R   5/ 5   2/160/10
FOLLY BEACH CMAN 0500   59      60/ 24/ 29 1027.1R
CAPERS NEARSHORE 0508   58      60/ 23/ 31 1026.9R
FRIPP NEARSHORE  0508   61 60   60/ 21/ 27 1025.5R


STATION/POSITION TIME  TEMP    WIND        PRES    WAVE   SWELL
                       AIR SEA DIR/SP/G            HT/PER HT/PER/DIR
                 (UTC) (F)     (DEG/KT/KT) (MB)    (FT/S) (FT/S/D)
5E ST. MARYS GA  0500      64                N/A     4/ 6
FRYING PAN BUOY  0510   56 63   40/ 25/ 31 1028.2
BUOY 41025       0450   47 75   30/ 21/ 29 1029.8S  10/11   5/ 50/11
CAPE LOOKOUT NC  0500   47      30/ 17/ 21 1029.9R
BUOY 41002       0450   61 73   20/ 29/ 35 1023.1R   9/ 9   7/ 10/ 9
BUOY 41010       NOT AVBL
ST AUGUSTINE FL  0500   66 66   10/  8/  9 1022.9R


$$




USA.gov is the U.S. government's official web portal to all federal, state and local government web resources and services.